Augusta, ME

1:20 PM EDT on July 26, 2017 (GMT -0400)
Augusta State

Weather History for KAUG - October, 2012

Change the Weather History Date:

Thursday, October 4, 2012

  Actual Average Record
Temperature  
Mean Temperature 58 °F 53 °F  
Max Temperature 60 °F 62 °F 81 °F (2001)
Min Temperature 55 °F 43 °F 31 °F (1996)
Degree Days  
Heating Degree Days 8 12  
Month to date heating degree days 47  
Since 1 July heating degree days 267  
Cooling Degree Days 0 0  
Month to date cooling degree days 0  
Year to date cooling degree days 387  
Growing Degree Days 8 (Base 50)    
Moisture  
Dew Point 57 °F    
Average Humidity 96    
Maximum Humidity 100    
Minimum Humidity 88    
Precipitation  
Precipitation 0.13 in 0.14 in 1.11 in (2003)
Month to date precipitation 0.54  
Year to date precipitation 30.46  
Sea Level Pressure  
Sea Level Pressure 30.15 in    
Wind  
Wind Speed 2 mph (ENE)    
Max Wind Speed 7 mph    
Max Gust Speed -    
Visibility 5 miles    
Events Fog , Rain    
T = Trace of Precipitation, MM = Missing Value Source: NWS Daily Summary

Daily Weather History Graph

Daily Weather History Graph

Search for Another Location

Airport or City:

Trip Planner

Search our weather history database for the weather conditions in past years. The results will help you decide how hot, cold, wet, or windy it might be!

Date:

Astronomy

Oct. 04, 2012 Rise Set
Actual Time 6:41 AM EDT 6:13 PM EDT
Civil Twilight 6:12 AM EDT 6:42 PM EDT
Nautical Twilight 5:38 AM EDT 7:16 PM EDT
Astronomical Twilight 5:04 AM EDT 7:49 PM EDT
Moon 8:36 PM EDT (10/4) 11:05 AM EDT (10/4)
Length of Visible Light 12h 30m
Length of Day
11h 32m
Waning Gibbous, 82% of the Moon is Illuminated
Oct 4
Waning Gibbous
Oct 8
Last Quarter
Oct 15
New
Oct 21
First Quarter
Oct 29
Full

Hourly Weather History & Observations

Time (EDT) Temp. Dew Point Humidity Pressure Visibility Wind Dir Wind Speed Gust Speed Precip Events Conditions
12:06 AM 59.0 °F 57.2 °F 94% 30.19 in 1.5 mi Calm Calm - N/A   Overcast
12:13 AM 59.0 °F 57.2 °F 94% 30.19 in 2.0 mi Calm Calm - N/A   Overcast
12:23 AM 59.0 °F 57.2 °F 94% 30.19 in 5.0 mi Calm Calm - N/A   Overcast
12:53 AM 59.0 °F 57.9 °F 96% 30.20 in 6.0 mi Calm Calm - N/A   Overcast
1:07 AM 59.0 °F 57.2 °F 94% 30.20 in 6.0 mi Calm Calm - N/A   Overcast
1:26 AM 59.0 °F 57.2 °F 94% 30.20 in 6.0 mi NNE 3.5 mph - N/A   Overcast
1:53 AM 59.0 °F 57.9 °F 96% 30.19 in 5.0 mi NE 3.5 mph - N/A   Overcast
2:07 AM 59.0 °F 57.2 °F 94% 30.19 in 6.0 mi NE 4.6 mph - N/A   Overcast
2:19 AM 59.0 °F 57.2 °F 94% 30.19 in 5.0 mi NE 3.5 mph - N/A   Overcast
2:30 AM 59.0 °F 57.2 °F 94% 30.19 in 7.0 mi Calm Calm - N/A   Overcast
2:53 AM 57.9 °F 57.9 °F 100% 30.19 in 6.0 mi NE 3.5 mph - N/A   Overcast
3:39 AM 57.2 °F 57.2 °F 100% 30.18 in 2.5 mi NE 4.6 mph - N/A   Overcast
3:53 AM 57.9 °F 57.9 °F 100% 30.17 in 3.0 mi East 4.6 mph - N/A   Overcast
4:18 AM 57.2 °F 57.2 °F 100% 30.18 in 2.5 mi NE 3.5 mph - N/A   Overcast
4:24 AM 57.2 °F 57.2 °F 100% 30.18 in 3.0 mi Calm Calm - N/A   Overcast
4:42 AM 57.2 °F 57.2 °F 100% 30.18 in 3.0 mi ENE 3.5 mph - 0.01 in   Overcast
4:53 AM 57.9 °F 57.9 °F 100% 30.19 in 5.0 mi Calm Calm - 0.01 in   Overcast
5:03 AM 59.0 °F 57.2 °F 94% 30.19 in 5.0 mi NNE 3.5 mph - N/A   Overcast
5:21 AM 59.0 °F 57.2 °F 94% 30.19 in 2.5 mi North 3.5 mph - N/A   Overcast
5:35 AM 59.0 °F 57.2 °F 94% 30.19 in 1.0 mi North 3.5 mph - N/A   Overcast
5:51 AM 57.2 °F 57.2 °F 100% 30.19 in 2.0 mi Calm Calm - N/A   Overcast
5:53 AM 57.9 °F 57.9 °F 100% 30.19 in 3.0 mi Calm Calm - N/A   Overcast
6:15 AM 59.0 °F 57.2 °F 94% 30.20 in 2.5 mi Calm Calm - N/A   Overcast
6:43 AM 57.2 °F 57.2 °F 100% 30.19 in 3.0 mi NE 4.6 mph - N/A   Overcast
6:53 AM 57.9 °F 57.9 °F 100% 30.19 in 3.0 mi ENE 4.6 mph - N/A   Overcast
7:02 AM 57.2 °F 57.2 °F 100% 30.19 in 2.0 mi NE 3.5 mph - N/A   Overcast
7:09 AM 57.2 °F 57.2 °F 100% 30.20 in 1.2 mi NE 3.5 mph - N/A   Overcast
7:30 AM 59.0 °F 57.2 °F 94% 30.20 in 3.0 mi Calm Calm - N/A   Overcast
7:42 AM 59.0 °F 57.2 °F 94% 30.19 in 2.5 mi NNE 4.6 mph - N/A   Overcast
7:53 AM 59.0 °F 57.9 °F 96% 30.19 in 2.5 mi NNE 4.6 mph - N/A   Overcast
7:55 AM 59.0 °F 57.2 °F 94% 30.19 in 3.0 mi NNE 3.5 mph - N/A   Overcast
8:27 AM 59.0 °F 57.2 °F 94% 30.20 in 5.0 mi North 3.5 mph - N/A   Overcast
8:53 AM 59.0 °F 57.9 °F 96% 30.20 in 8.0 mi ENE 4.6 mph - N/A   Overcast
9:41 AM 59.0 °F 57.2 °F 94% 30.19 in 8.0 mi ENE 3.5 mph - N/A   Overcast
9:53 AM 59.0 °F 57.9 °F 96% 30.18 in 10.0 mi NE 5.8 mph - N/A   Overcast
10:53 AM 60.1 °F 57.0 °F 90% 30.19 in 10.0 mi North 4.6 mph - N/A   Overcast
11:17 AM 59.0 °F 55.4 °F 88% 30.18 in 10.0 mi NNE 4.6 mph - N/A   Overcast
11:53 AM 59.0 °F 57.0 °F 93% 30.17 in 10.0 mi ENE 4.6 mph - N/A   Overcast
12:32 PM 59.0 °F 55.4 °F 88% 30.16 in 10.0 mi Calm Calm - N/A   Overcast
12:53 PM 59.0 °F 57.0 °F 93% 30.17 in 10.0 mi Calm Calm - N/A   Overcast
1:22 PM 59.0 °F 55.4 °F 88% 30.14 in 10.0 mi ENE 3.5 mph - N/A   Overcast
1:53 PM 57.9 °F 55.9 °F 93% 30.14 in 9.0 mi ENE 4.6 mph - 0.00 in   Overcast
2:49 PM 57.2 °F 55.4 °F 94% 30.11 in 10.0 mi ENE 3.5 mph - N/A   Overcast
2:53 PM 57.9 °F 55.9 °F 93% 30.12 in 10.0 mi ENE 4.6 mph - N/A   Overcast
3:17 PM 57.2 °F 55.4 °F 94% 30.11 in 10.0 mi East 3.5 mph - N/A   Overcast
3:25 PM 57.2 °F 55.4 °F 94% 30.11 in 7.0 mi East 4.6 mph - 0.00 in Rain Light Rain
3:53 PM 57.0 °F 55.9 °F 96% 30.11 in 4.0 mi East 4.6 mph - 0.02 in Rain Light Rain
4:03 PM 57.2 °F 55.4 °F 94% 30.10 in 4.0 mi ESE 4.6 mph - 0.01 in Rain Light Rain
4:53 PM 57.0 °F 55.9 °F 96% 30.11 in 7.0 mi ESE 3.5 mph - 0.06 in Rain Light Rain
5:30 PM 57.2 °F 55.4 °F 94% 30.08 in 5.0 mi East 5.8 mph - 0.01 in Rain Light Rain
5:37 PM 57.2 °F 55.4 °F 94% 30.08 in 5.0 mi East 6.9 mph - 0.02 in Rain Light Rain
5:53 PM 57.0 °F 55.9 °F 96% 30.06 in 4.0 mi East 6.9 mph - 0.03 in Rain Light Rain
6:26 PM 57.2 °F 55.4 °F 94% 30.07 in 9.0 mi SSE 5.8 mph - 0.01 in Rain Light Rain
6:53 PM 55.9 °F 55.0 °F 97% 30.09 in 10.0 mi South 3.5 mph - 0.01 in   Overcast
7:53 PM 55.9 °F 55.0 °F 97% 30.07 in 8.0 mi SE 4.6 mph - N/A   Overcast
8:53 PM 55.4 °F 55.4 °F 100% 30.06 in 8.0 mi SSE 4.6 mph - N/A   Overcast
9:53 PM 55.9 °F 55.0 °F 97% 30.06 in 5.0 mi South 3.5 mph - N/A   Overcast
10:05 PM 55.4 °F 55.4 °F 100% 30.06 in 1.8 mi SSE 4.6 mph - N/A   Overcast
10:17 PM 55.4 °F 55.4 °F 100% 30.06 in 0.5 mi South 3.5 mph - N/A Fog Fog
10:44 PM 55.4 °F 55.4 °F 100% 30.04 in 0.2 mi SSE 5.8 mph - N/A Fog Fog
10:53 PM 55.9 °F 55.0 °F 97% 30.05 in 0.2 mi South 4.6 mph - N/A Fog Fog
11:53 PM 55.9 °F 55.0 °F 97% 30.04 in 0.2 mi Calm Calm - N/A Fog Fog
11:56 PM 55.4 °F 55.4 °F 100% 30.03 in 0.5 mi South 3.5 mph - N/A Fog Fog